AEHF-3 (USA 246)

Last updated on Sat Jul 05 2025 00:02:45 GMT+0000 (Coordinated Universal Time)

1 39256U 13050A 25185.41101257 .00000040 00000+0 00000+0 0 9998 2 39256 4.4293 70.2557 0087635 178.6534 57.4416 1.00273132 42167
UTC large
Height (km)
Speed (km/s)
/
Latitude / Longitude
Inclination (degrees)
Orbital Period (minutes)
Azimuth
Elevation
Range (km)
Doppler Factor

Next 0 passes for location: London (51.5072 / 0.1276)

Sorry there are no passes over London.